Location: Bonningues
(50.7927°N, 2.0150°E)
Time: 09:07:08
(UTC+00:00)

Cosmos 2123 Rocket - Pass Details

Date: 08 August 2020
Orbit: 962 x 991 km, 82.9° (Epoch: 20 September)

Event Time Altitude Azimuth Distance (km) Brightness Sun altitude
Rises 20:03:12 0° 353° (N) 3,666 7.7 -6.1°
Reaches altitude 10° 20:05:51 10° 360° (N) 2,718 6.9 -6.4°
Maximum altitude 20:11:48 45° 72° (ENE) 1,298 4.5 -7.2°
Drops below altitude 10° 20:17:44 10° 144° (SE) 2,718 5.7 -7.9°
Enters shadow 20:18:16 - 146° (SE) 2,908 5.9 -8.0°
